1504368000.71,54722,21.44,73684.8,4.69,2.91,2.95,0,*74
1504368001.94,54723,21.38,73682.5,4.69,3.03,3.07,0,*75
1504368003.14,54724,21.44,73684.0,4.73,2.89,2.95,0,*70
1504368004.32,54725,21.44,73686.5,4.73,2.95,2.99,0,*70
1504368005.52,54726,21.44,73684.0,4.73,2.99,3.11,0,*7E
1504368006.72,54727,21.38,73682.3,4.73,2.99,3.19,0,*77
1504368007.95,54728,21.44,73684.0,4.73,3.11,3.11,0,*71
1504368009.17,54729,21.44,73686.0,4.73,3.07,3.19,0,*7F
1504368010.4,54730,21.38,73682.5,4.73,3.07,3.23,0,*7E
1504368011.63,54731,21.44,73684.3,4.73,3.11,3.23,0,*78
1504368012.86,54732,21.44,73684.0,4.73,3.07,3.23,0,*7C
1504368014.09,54733,21.38,73682.0,4.73,3.07,3.19,0,*74
1504368015.29,54734,21.44,73686.8,4.73,2.99,3.07,0,*7A
1504368016.52,54735,21.38,73684.8,4.73,3.11,3.23,0,*7C
1504368017.74,54736,21.44,73684.5,4.73,3.11,3.19,0,*76
1504368018.94,54737,21.44,73686.3,4.73,2.99,3.19,0,*76
1504368020.17,54738,21.38,73680.8,4.75,2.95,3.07,0,*7C
1504368021.43,54739,21.44,73686.3,4.75,3.07,3.23,0,*71
1504368022.65,54740,21.38,73684.0,4.73,3.07,3.23,0,*79
1504368023.88,54741,21.38,73686.5,4.73,3.07,3.19,0,*71
1504368025.09,54742,21.38,73684.3,4.73,3.11,3.25,0,*7A
1504368026.29,54743,21.38,73686.8,4.73,3.25,3.33,0,*7B
1504368027.52,54744,21.38,73686.3,4.73,3.33,3.33,0,*7B
1504368028.75,54745,21.38,73684.5,4.73,3.33,3.37,0,*7E
1504368029.97,54746,21.44,73690.5,4.75,3.25,3.37,0,*7C
1504368031.23,54747,21.38,73686.0,4.75,3.23,3.33,0,*7F
1504368032.49,54748,21.38,73686.3,4.75,3.07,3.19,0,*7E
1504368033.7,54749,21.44,73684.0,4.77,3.23,3.29,0,*78
1504368034.9,54750,21.44,73688.0,4.77,3.25,3.37,0,*79
1504368036.14,54751,21.38,73684.0,4.75,3.25,3.33,0,*7E
1504368037.4,54752,21.38,73686.5,4.75,3.23,3.33,0,*7B
1504368038.63,54753,21.38,73688.3,4.77,3.37,3.37,0,*79
1504368039.87,54754,21.44,73688.3,4.75,3.19,3.23,0,*75
1504368041.1,54755,21.38,73688.3,4.77,3.11,3.23,0,*7E
1504368042.31,54756,21.38,73686.8,4.77,3.23,3.25,0,*7A
1504368043.49,54757,21.44,73688.8,4.77,3.25,3.29,0,*71
1504368044.7,54758,21.38,73686.8,4.77,3.25,3.37,0,*71
1504368045.96,54759,21.44,73688.5,4.75,3.23,3.33,0,*70
1504368047.21,54760,21.38,73690.0,4.79,3.41,3.53,0,*74
1504368048.45,54761,21.44,73688.5,4.77,3.37,3.41,0,*79
1504368049.66,54762,21.38,73690.0,4.77,3.29,3.41,0,*75
1504368050.87,54763,21.38,73690.0,4.77,3.29,3.41,0,*74
1504368052.09,54764,21.38,73690.8,4.77,3.29,3.41,0,*73
1504368053.33,54765,21.44,73688.5,4.77,3.23,3.41,0,*78
1504368054.53,54766,21.44,73690.8,4.77,3.23,3.29,0,*75
1504368055.8,54767,21.44,73686.0,4.79,3.15,3.15,0,*70
1504368057.0,54768,21.44,73686.0,4.77,2.89,2.99,0,*70
1504368058.23,54769,21.44,73684.8,4.79,2.81,2.95,0,*7B
1504368059.45,54770,21.38,73682.8,4.79,2.85,2.95,0,*77
1504368060.71,54771,21.44,73684.5,4.79,3.03,3.19,0,*7C
1504368061.92,54772,21.38,73684.0,4.79,3.29,3.29,0,*74
1504368063.14,54773,21.38,73686.0,4.79,3.29,3.53,0,*78
1504368064.4,54774,21.38,73686.8,4.79,3.41,3.45,0,*76
1504368065.66,54775,21.44,73690.5,4.79,3.41,3.53,0,*70
1504368066.88,54776,21.38,73686.5,4.79,3.45,3.55,0,*71
1504368068.08,54777,21.44,73688.3,4.81,3.45,3.55,0,*77
1504368069.31,54778,21.44,73690.0,4.79,3.45,3.63,0,*7A
1504368070.51,54779,21.44,73690.0,4.81,3.45,3.63,0,*7C
1504368071.73,54780,21.38,73688.8,4.79,3.45,3.55,0,*78
1504368072.94,54781,21.38,73688.3,4.81,3.29,3.45,0,*75
1504368074.15,54782,21.38,73690.5,4.81,3.25,3.41,0,*7E
1504368075.33,54783,21.38,73686.5,4.81,3.29,3.29,0,*7D
1504368076.55,54784,21.38,73690.0,4.85,3.33,3.37,0,*7A
1504368077.76,54785,21.38,73688.5,4.81,3.15,3.29,0,*74
1504368079.02,54786,21.38,73688.0,4.79,3.07,3.19,0,*70
1504368080.25,54787,21.38,73684.3,4.81,3.19,3.33,0,*71
1504368081.46,54788,21.44,73686.0,4.81,3.25,3.41,0,*74
1504368082.66,54789,21.38,73682.8,4.81,3.15,3.25,0,*74
1504368083.89,54790,21.38,73680.0,4.85,3.19,3.33,0,*73
1504368085.09,54791,21.44,73686.5,4.85,3.19,3.29,0,*79
1504368086.32,54792,21.38,73686.3,4.85,3.19,3.33,0,*71
1504368087.55,54793,21.44,73688.5,4.85,3.23,3.45,0,*78
1504368088.79,54794,21.38,73684.8,4.81,3.15,3.33,0,*7F
1504368090.04,54795,21.38,73686.5,4.87,3.33,3.45,0,*7D
1504368091.27,54796,21.38,73684.8,4.85,3.33,3.49,0,*70
1504368092.47,54797,21.38,73690.3,4.85,3.29,3.37,0,*73
1504368093.72,54798,21.38,73694.0,4.87,3.19,3.37,0,*7D
1504368094.98,54799,21.38,73690.8,4.87,2.47,2.59,0,*7F
1504368096.18,54800,21.38,73690.8,4.85,2.35,2.51,0,*7F
1504368097.41,54801,21.38,73690.3,4.85,2.05,2.25,0,*7E
1504368098.64,54802,21.44,73686.5,4.85,1.93,2.17,0,*70
1504368099.84,54803,21.38,73684.3,4.85,1.83,2.05,0,*73
1504368101.07,54804,21.44,73684.3,4.81,1.71,2.01,0,*79
1504368102.3,54805,21.38,73676.3,4.79,1.79,2.01,0,*77
1504368103.55,54806,21.38,73682.3,4.79,1.89,2.25,0,*7D
1504368104.77,54807,21.38,73680.5,4.79,2.01,2.31,0,*7A
1504368106.0,54808,21.44,73682.3,4.75,2.13,2.35,0,*7E
1504368107.22,54809,21.38,73680.5,4.77,2.21,2.55,0,*7A
1504368108.42,54810,21.38,73678.8,4.77,2.09,2.31,0,*7A
1504368109.66,54811,21.44,73682.0,4.77,2.17,2.39,0,*7C
1504368110.87,54812,21.38,73682.0,4.77,2.31,2.59,0,*7D
1504368112.12,54813,21.38,73680.5,4.75,2.55,2.85,0,*7D
1504368113.35,54814,21.38,73680.5,4.75,2.55,2.65,0,*74
1504368114.58,54815,21.38,73684.0,4.75,2.35,2.51,0,*74
1504368115.8,54816,21.38,73680.5,4.75,2.35,2.55,0,*73
1504368117.06,54817,21.38,73680.3,4.75,2.51,2.55,0,*70
1504368118.29,54818,21.38,73680.8,4.75,2.55,2.65,0,*78
1504368119.53,54819,21.38,73680.5,4.75,2.51,2.61,0,*79
1504368120.76,54820,21.38,73680.5,4.75,2.51,2.61,0,*73
1504368121.97,54821,21.38,73682.3,4.75,2.61,2.65,0,*75
1504368123.2,54822,21.38,73680.8,4.75,2.65,2.77,0,*71
1504368124.43,54823,21.38,73686.5,4.75,2.89,2.99,0,*72
1504368125.66,54824,21.44,73690.8,4.75,2.99,3.11,0,*75
1504368126.91,54825,21.38,73686.0,4.75,3.11,3.23,0,*74
1504368128.16,54826,21.38,73690.8,4.75,2.73,2.85,0,*7F
1504368129.41,54827,21.44,73692.5,4.75,2.89,2.85,0,*7B
1504368130.61,54828,21.38,73692.8,4.77,2.35,2.39,0,*76
1504368131.84,54829,21.38,73686.3,4.75,2.35,2.39,0,*75
1504368133.07,54830,21.38,73682.8,4.75,2.27,2.47,0,*77
1504368134.28,54831,21.38,73676.5,4.73,2.51,2.65,0,*71
1504368135.48,54832,21.38,73676.5,4.73,2.65,2.89,0,*77
1504368136.68,54833,21.38,73680.0,4.73,2.73,2.99,0,*70
1504368137.9,54834,21.38,73680.8,4.73,2.85,3.07,0,*78
1504368139.13,54835,21.38,73678.5,4.73,2.77,2.89,0,*73
1504368140.36,54836,21.38,73680.5,4.75,2.65,2.85,0,*79
1504368141.62,54837,21.38,73680.5,4.75,2.77,2.89,0,*77
1504368142.84,54838,21.38,73686.8,4.73,2.73,2.89,0,*7A
1504368144.04,54839,21.38,73684.0,4.73,2.65,2.85,0,*70
1504368145.25,54840,21.38,73686.5,4.75,2.61,2.65,0,*72
1504368146.48,54841,21.38,73682.8,4.75,2.55,2.65,0,*74
1504368147.69,54842,21.38,73680.3,4.73,2.47,2.61,0,*76
1504368148.9,54843,21.38,73678.5,4.73,2.55,2.65,0,*70
1504368150.1,54844,21.38,73682.3,4.73,2.65,2.89,0,*76
1504368151.31,54845,21.38,73686.5,4.73,2.95,3.07,0,*7F
1504368152.5,54846,21.38,73690.0,4.73,2.95,3.19,0,*73
1504368153.7,54847,21.38,73690.5,4.73,2.99,3.19,0,*7E
1504368154.92,54848,21.38,73686.0,4.73,2.89,3.07,0,*7F
1504368156.12,54849,21.38,73684.8,4.73,2.77,2.99,0,*79
1504368157.33,54850,21.38,73680.8,4.73,2.61,2.73,0,*72
1504368158.53,54851,21.38,73680.3,4.73,2.55,2.65,0,*73
1504368159.75,54852,21.38,73680.3,4.73,2.55,2.73,0,*77
1504368160.97,54853,21.38,73684.0,4.73,2.47,2.61,0,*76
1504368162.17,54854,21.44,73686.8,4.73,2.51,2.65,0,*72
1504368163.38,54855,21.38,73684.5,4.73,2.61,2.89,0,*72
1504368164.58,54856,21.38,73686.5,4.73,2.85,2.99,0,*7A
1504368165.78,54857,21.44,73690.3,4.73,2.77,2.99,0,*76
1504368166.97,54858,21.38,73686.0,4.73,2.77,2.99,0,*79
1504368168.15,54859,21.38,73686.3,4.73,2.61,2.95,0,*73
1504368169.33,54860,21.44,73684.8,4.73,2.61,2.95,0,*79
1504368170.53,54861,21.38,73686.5,4.73,2.61,2.89,0,*75
1504368171.76,54862,21.38,73684.0,4.73,2.77,3.07,0,*76
1504368172.95,54863,21.38,73686.5,4.73,2.99,3.19,0,*78
1504368174.15,54864,21.38,73688.3,4.73,2.99,3.23,0,*76
1504368175.38,54865,21.38,73684.0,4.73,2.89,3.11,0,*77
1504368176.57,54866,21.38,73690.0,4.73,2.99,3.23,0,*74
1504368177.77,54867,21.38,73690.3,4.73,2.95,3.11,0,*78
1504368178.97,54868,21.38,73688.8,4.73,2.85,2.95,0,*7B
1504368180.17,54869,21.38,73688.3,4.73,2.85,2.99,0,*76
1504368181.39,54870,21.38,73690.8,4.73,2.85,3.11,0,*7F
1504368182.6,54871,21.38,73684.8,4.73,2.61,2.89,0,*74
1504368183.85,54872,21.38,73690.0,4.75,2.77,3.11,0,*76
1504368185.05,54873,21.38,73692.0,4.77,2.55,2.91,0,*7C
1504368186.28,54874,21.38,73690.8,4.75,2.13,2.65,0,*70
1504368187.52,54875,21.38,73690.8,4.75,1.93,2.65,0,*7A
1504368188.72,54876,21.38,73688.3,4.75,1.83,2.61,0,*7C
1504368189.96,54877,21.38,73688.3,4.75,1.89,2.61,0,*77
1504368191.21,54878,21.38,73688.8,4.75,1.89,2.51,0,*7B
1504368192.44,54879,21.38,73688.3,4.75,2.27,2.77,0,*79
1504368193.64,54880,21.38,73688.5,4.75,2.35,2.99,0,*7C
1504368194.87,54881,21.38,73690.8,4.75,2.27,3.07,0,*78
1504368196.14,54882,21.38,73686.5,4.75,1.21,2.17,0,*7E
1504368197.37,54883,21.38,73684.0,4.75,1.05,2.13,0,*7D
1504368198.62,54884,21.38,73684.3,4.75,0.83,2.01,0,*46
1504368199.84,54885,21.38,73682.3,4.73,0.47,1.67,0,*4A
1504368201.07,54886,21.38,73682.3,4.73,1.29,2.47,0,*71
1504368202.25,54887,21.38,73680.0,4.73,1.79,2.65,0,*75
1504368203.48,54888,21.38,73684.0,4.73,2.01,2.85,0,*78
1504368204.7,54889,21.38,73684.8,4.73,1.67,2.39,0,*7D
1504368205.94,54890,21.38,73684.3,4.73,1.51,2.51,0,*7E
1504368207.14,54891,21.38,73682.3,4.73,1.09,2.35,0,*70
1504368208.35,54892,21.38,73682.3,4.73,1.41,2.51,0,*7D
1504368209.59,54893,21.38,73682.3,4.73,1.33,2.51,0,*79
1504368210.82,54894,21.38,73686.5,4.73,1.43,2.51,0,*79
1504368212.04,54895,21.38,73686.0,4.73,1.63,2.55,0,*7E
1504368213.27,54896,21.38,73684.3,4.73,1.93,2.77,0,*72
1504368214.5,54897,21.38,73686.8,4.73,2.13,2.89,0,*79
1504368215.73,54898,21.38,73686.3,4.73,2.13,2.89,0,*76
1504368216.91,54899,21.38,73684.8,4.73,2.27,2.95,0,*7D
1504368218.09,54900,21.38,73682.8,4.73,2.27,2.95,0,*7C
1504368219.26,54901,21.38,73684.8,4.73,2.27,2.95,0,*7D
1504368220.5,54902,21.38,73682.8,4.75,2.27,2.89,0,*75
1504368221.73,54903,21.38,73686.3,4.77,2.39,3.11,0,*79
1504368222.98,54904,21.38,73684.0,4.75,2.47,3.11,0,*75
1504368224.19,54905,21.38,73682.3,4.77,2.31,3.11,0,*77
1504368225.42,54906,21.38,73674.8,4.77,2.09,2.81,0,*77
1504368226.66,54907,21.38,73680.5,4.77,2.21,2.81,0,*7C
1504368227.86,54908,21.38,73680.8,4.77,2.27,2.89,0,*7D
1504368229.12,54909,21.38,73682.5,4.75,2.17,2.77,0,*7C
1504368230.35,54910,21.38,73684.0,4.77,2.21,2.77,0,*73
1504368231.61,54911,21.38,73686.0,4.79,2.43,3.03,0,*7A
1504368232.84,54912,21.38,73686.0,4.79,2.35,3.07,0,*7C
1504368234.1,54913,21.38,73690.0,4.79,2.47,3.03,0,*7C
1504368235.33,54914,21.38,73686.8,4.79,2.43,2.95,0,*71
1504368236.56,54915,21.38,73686.3,4.79,2.61,3.03,0,*7E
1504368237.81,54916,21.38,73686.5,4.79,2.25,2.69,0,*70
1504368239.04,54917,21.38,73686.3,4.81,2.25,2.59,0,*75
1504368240.25,54918,21.38,73684.3,4.79,2.31,2.61,0,*73
1504368241.48,54919,21.38,73684.8,4.79,2.31,2.73,0,*71
1504368242.68,54920,21.38,73686.8,4.79,2.61,2.95,0,*76
1504368243.9,54921,21.38,73684.3,4.81,2.55,2.85,0,*76
1504368245.13,54922,21.38,73690.3,4.81,2.55,2.81,0,*71
1504368246.37,54923,21.38,73690.3,4.81,2.59,2.81,0,*7C
1504368247.63,54924,21.38,73686.8,4.79,2.59,2.81,0,*7C
1504368248.86,54925,21.38,73688.8,4.81,2.25,2.43,0,*7F
1504368250.06,54926,21.38,73684.3,4.81,1.79,2.09,0,*78
1504368251.26,54927,21.38,73686.0,4.81,2.09,2.31,0,*76
1504368252.51,54928,21.38,73686.0,4.79,2.21,2.47,0,*75
1504368253.76,54929,21.38,73684.3,4.79,2.13,2.43,0,*71
1504368254.99,54930,21.38,73688.3,4.79,2.31,2.55,0,*7E
1504368256.23,54931,21.38,73684.8,4.79,2.43,2.61,0,*7D
1504368257.45,54932,21.38,73686.8,4.79,2.21,2.35,0,*7B
1504368258.7,54933,21.38,73682.3,4.79,1.85,2.21,0,*72
1504368259.96,54934,21.38,73686.8,4.79,2.13,2.47,0,*79
1504368261.19,54935,21.38,73684.8,4.77,2.17,2.55,0,*71
1504368262.42,54936,21.38,73686.0,4.77,2.05,2.55,0,*71
1504368263.62,54937,21.38,73686.8,4.77,1.83,2.21,0,*7E
1504368264.86,54938,21.38,73680.5,4.77,1.85,2.39,0,*7E
1504368266.09,54939,21.38,73684.3,4.77,1.97,2.55,0,*76
1504368267.32,54940,21.38,73682.8,4.77,2.05,2.59,0,*7C
1504368268.55,54941,21.38,73686.8,4.77,1.97,2.43,0,*7E
1504368269.79,54942,21.38,73680.3,4.77,1.97,2.43,0,*7D
1504368271.04,54943,21.38,73682.0,4.75,1.67,2.25,0,*71
1504368272.27,54944,21.38,73680.3,4.77,1.93,2.43,0,*7F
1504368273.5,54945,21.38,73686.0,4.77,2.21,2.59,0,*7F
1504368274.72,54946,21.38,73684.5,4.75,1.93,2.27,0,*7D
1504368275.98,54947,21.38,73682.8,4.75,1.89,2.17,0,*74
1504368277.23,54948,21.38,73680.8,4.75,1.89,2.25,0,*7A
1504368278.45,54949,21.38,73684.0,4.75,2.01,2.27,0,*7A
1504368279.68,54950,21.38,73682.5,4.75,1.79,2.01,0,*7A
1504368280.89,54951,21.38,73676.5,4.73,2.17,2.35,0,*71
1504368282.09,54952,21.38,73676.8,4.73,2.13,2.27,0,*75
1504368283.29,54953,21.38,73678.3,4.73,2.25,2.35,0,*72
1504368284.52,54954,21.38,73676.0,4.73,2.13,2.17,0,*70
1504368285.75,54955,21.38,73676.5,4.73,2.05,2.17,0,*76
1504368286.97,54956,21.38,73678.8,4.73,2.51,2.55,0,*72
1504368288.2,54957,21.38,73678.0,4.73,2.85,2.89,0,*7B
1504368289.4,54958,21.38,73676.8,4.73,2.77,2.95,0,*74
1504368290.63,54959,21.38,73680.0,4.73,3.07,3.19,0,*76
1504368291.86,54960,21.38,73680.3,4.73,3.07,3.19,0,*7C
1504368293.06,54961,21.38,73678.3,4.73,2.95,3.11,0,*7F
1504368294.28,54962,21.38,73678.8,4.73,2.77,2.85,0,*7C
1504368295.46,54963,21.38,73680.0,4.73,2.61,2.61,0,*70
1504368296.67,54964,21.38,73680.0,4.73,2.55,2.65,0,*74
1504368297.9,54965,21.38,73682.0,4.73,2.77,2.89,0,*77
1504368299.08,54966,21.38,73680.3,4.73,2.61,2.61,0,*75
1504368300.28,54967,21.38,73680.0,4.73,2.55,2.61,0,*73
1504368301.52,54968,21.38,73678.8,4.73,2.39,2.51,0,*75
1504368302.72,54969,21.38,73680.8,4.73,2.25,2.35,0,*7B
1504368303.91,54970,21.38,73678.8,4.73,2.25,2.35,0,*73
1504368305.15,54971,21.38,73682.3,4.73,2.47,2.51,0,*74
1504368306.38,54972,21.38,73682.5,4.73,2.39,2.47,0,*79
1504368307.6,54973,21.38,73678.0,4.73,2.47,2.55,0,*72
1504368308.81,54974,21.38,73682.8,4.73,2.55,2.61,0,*71
1504368310.01,54975,21.38,73678.8,4.73,2.55,2.65,0,*74
1504368311.22,54976,21.38,73682.8,4.73,2.61,2.73,0,*77
1504368312.42,54977,21.38,73680.8,4.73,2.61,2.73,0,*76
1504368313.63,54978,21.38,73680.0,4.73,2.65,2.89,0,*78
1504368314.82,54979,21.38,73680.3,4.69,2.73,2.91,0,*7C
1504368316.05,54980,21.38,73680.0,4.69,2.69,2.81,0,*70
1504368317.26,54981,21.38,73678.8,4.69,2.59,2.61,0,*7C
1504368318.46,54982,21.38,73676.5,4.69,2.61,2.69,0,*7C
1504368319.69,54983,21.38,73672.8,4.69,2.81,2.85,0,*71
1504368320.89,54984,21.38,73676.8,4.69,2.81,2.91,0,*73
1504368322.09,54985,21.38,73678.5,4.73,2.95,3.07,0,*72
1504368323.32,54986,21.38,73678.0,4.73,3.07,3.19,0,*74
1504368324.54,54987,21.38,73678.8,4.73,3.19,3.23,0,*73
1504368325.77,54988,21.38,73676.5,4.73,3.07,3.19,0,*7A
1504368326.94,54989,21.38,73678.3,4.73,2.95,2.95,0,*74
1504368328.17,54990,21.38,73678.0,4.73,2.77,2.89,0,*7D
1504368329.4,54991,21.38,73676.3,4.73,2.73,2.89,0,*78
1504368330.59,54992,21.38,73680.0,4.73,2.85,2.95,0,*7F
1504368331.79,54993,21.38,73680.0,4.73,2.85,2.95,0,*7E
1504368333.0,54994,21.38,73680.3,4.73,2.65,2.73,0,*7F
1504368334.18,54995,21.38,73676.3,4.73,2.65,2.65,0,*79
1504368335.4,54996,21.38,73682.3,4.73,2.73,2.77,0,*7E
1504368336.62,54997,21.38,73684.3,4.73,2.85,2.85,0,*7B
1504368337.82,54998,21.38,73680.0,4.73,2.85,2.95,0,*75
1504368339.02,54999,21.38,73684.0,4.73,2.99,3.19,0,*7C
1504368340.19,55000,21.38,73680.0,4.73,2.95,2.99,0,*71
1504368341.4,55001,21.38,73682.5,4.73,2.99,3.11,0,*7D
1504368342.61,55002,21.38,73682.8,4.73,3.19,3.23,0,*76
1504368343.84,55003,21.38,73680.5,4.73,3.11,3.23,0,*7F
1504368345.07,55004,21.38,73682.3,4.73,3.11,3.23,0,*78
1504368346.29,55005,21.38,73682.3,4.73,3.11,3.23,0,*79
1504368347.53,55006,21.38,73684.0,4.73,3.23,3.33,0,*7A
1504368348.74,55007,21.38,73682.3,4.73,3.19,3.19,0,*7A
1504368349.98,55008,21.38,73682.3,4.73,3.23,3.33,0,*74
1504368351.18,55009,21.38,73680.5,4.73,3.23,3.25,0,*72
1504368352.41,55010,21.38,73682.0,4.73,3.23,3.19,0,*75
1504368353.63,55011,21.38,73682.5,4.73,3.19,3.23,0,*74
1504368354.86,55012,21.38,73682.3,4.73,3.11,3.11,0,*7E
1504368356.09,55013,21.38,73684.0,4.73,2.89,2.89,0,*7F
1504368357.31,55014,21.38,73684.8,4.73,2.77,2.77,0,*78
1504368358.54,55015,21.38,73684.5,4.73,2.73,2.73,0,*79
1504368359.76,55016,21.38,73682.8,4.73,2.77,2.85,0,*77
1504368360.98,55017,21.38,73680.5,4.73,2.77,2.85,0,*76
1504368362.2,55018,21.38,73684.3,4.73,2.77,2.77,0,*74
1504368363.44,55019,21.38,73684.0,4.73,3.07,3.07,0,*75
1504368364.66,55020,21.38,73682.5,4.73,3.11,3.23,0,*7E
1504368365.84,55021,21.38,73682.8,4.73,3.25,3.25,0,*7E
1504368367.05,55022,21.38,73684.8,4.73,3.25,3.33,0,*7A
1504368368.28,55023,21.38,73680.5,4.73,3.19,3.33,0,*74
1504368369.5,55024,21.38,73686.0,4.73,3.33,3.33,0,*7B
1504368370.71,55025,21.38,73682.3,4.73,3.25,3.33,0,*7D
1504368371.91,55026,21.38,73684.0,4.73,3.23,3.25,0,*7F
1504368373.15,55027,21.38,73682.8,4.75,3.25,3.33,0,*79
1504368374.4,55028,21.38,73682.8,4.75,3.33,3.37,0,*75
1504368375.6,55029,21.38,73682.5,4.75,3.25,3.25,0,*70
1504368376.85,55030,21.38,73684.8,4.75,3.33,3.37,0,*7C
1504368378.1,55031,21.38,73682.5,4.75,3.19,3.19,0,*79
1504368379.33,55032,21.38,73684.0,4.77,3.11,3.11,0,*78
1504368380.56,55033,21.38,73680.0,4.75,2.95,3.07,0,*71
1504368381.82,55034,21.38,73678.0,4.75,3.23,3.33,0,*7D
1504368383.03,55035,21.38,73680.0,4.77,3.29,3.41,0,*71
1504368384.28,55036,21.38,73680.8,4.75,3.19,3.23,0,*77
1504368385.52,55037,21.38,73680.8,4.75,3.19,3.23,0,*76
1504368386.75,55038,21.38,73684.8,4.75,2.95,3.07,0,*7A
1504368387.99,55039,21.38,73686.8,4.77,2.81,2.89,0,*7B
1504368389.21,55040,21.38,73682.3,4.79,2.73,2.91,0,*7F
1504368390.42,55041,21.38,73680.5,4.77,2.65,2.81,0,*76
1504368391.67,55042,21.38,73678.0,4.75,2.73,2.77,0,*79
1504368392.92,55043,21.38,73680.3,4.75,2.73,2.85,0,*75
1504368394.17,55044,21.38,73686.0,4.75,2.77,2.85,0,*76
1504368395.42,55045,21.38,73680.0,4.75,2.77,2.89,0,*7B
1504368396.65,55046,21.38,73682.5,4.75,2.65,2.77,0,*7A
1504368397.91,55047,21.38,73676.3,4.75,2.73,2.89,0,*7D
1504368399.15,55048,21.38,73682.3,4.75,2.73,2.85,0,*7E
1504368400.36,55049,21.38,73682.3,4.75,2.61,2.61,0,*76
1504368401.59,55050,21.38,73678.3,4.75,2.55,2.65,0,*7D
1504368402.8,55051,21.38,73682.0,4.73,2.65,2.73,0,*7E
1504368404.02,55052,21.38,73680.5,4.73,2.73,2.85,0,*73
1504368405.22,55053,21.38,73680.0,4.73,2.65,2.77,0,*78
1504368406.4,55054,21.38,73682.3,4.73,2.61,2.65,0,*78
1504368407.58,55055,21.38,73686.5,4.73,2.61,2.65,0,*79
1504368408.76,55056,21.38,73686.0,4.73,2.95,2.99,0,*72
1504368409.99,55057,21.38,73688.5,4.73,3.11,3.23,0,*7E
1504368411.21,55058,21.38,73690.3,4.73,3.19,3.19,0,*70
1504368412.43,55059,21.38,73692.8,4.73,3.11,3.19,0,*79
1504368413.66,55060,21.38,73692.8,4.73,3.07,3.11,0,*7C
1504368414.87,55061,21.38,73690.0,4.73,2.65,2.85,0,*74
1504368416.07,55062,21.38,73684.3,4.73,2.61,2.73,0,*7A
1504368417.28,55063,21.38,73686.0,4.73,2.51,2.65,0,*7F
1504368418.5,55064,21.38,73684.8,4.73,2.25,2.47,0,*7B
1504368419.7,55065,21.38,73684.3,4.73,2.35,2.55,0,*78
1504368420.93,55066,21.38,73690.0,4.73,2.17,2.55,0,*7B
1504368422.13,55067,21.38,73684.3,4.73,1.63,2.27,0,*7F
1504368423.36,55068,21.38,73686.0,4.73,1.51,2.39,0,*7E
1504368424.58,55069,21.38,73682.8,4.73,1.71,2.55,0,*77
1504368425.84,55070,21.38,73686.0,4.75,1.89,2.77,0,*7E
1504368427.06,55071,21.38,73684.3,4.73,2.13,2.77,0,*79
1504368428.27,55072,21.38,73684.0,4.73,2.01,2.61,0,*7E
1504368429.5,55073,21.38,73684.3,4.75,2.05,2.65,0,*79
1504368430.69,55074,21.38,73680.8,4.73,1.83,2.61,0,*71
1504368431.92,55075,21.38,73684.0,4.75,1.71,2.61,0,*7B
1504368433.16,55076,21.38,73686.0,4.75,1.71,2.61,0,*78
1504368434.39,55077,21.38,73686.8,4.75,1.05,2.17,0,*7B
1504368435.64,55078,21.38,73680.5,4.75,0.67,2.13,0,*45
1504368436.86,55079,21.38,73684.0,4.75,-0.07,2.17,0,*5B
1504368438.07,55080,21.38,73684.5,4.75,-0.77,1.83,0,*64
1504368439.28,55081,21.38,73680.5,4.75,-1.17,1.79,0,*57
1504368440.49,55082,21.38,73686.5,4.75,-1.79,1.79,0,*5C
1504368441.69,55083,21.38,73680.8,4.77,-1.63,1.71,0,*5C
1504368442.96,55084,21.38,73682.0,4.75,-1.05,2.01,0,*5D
1504368444.15,55085,21.38,73680.5,4.75,0.05,2.35,0,*77
1504368445.39,55086,21.38,73678.8,4.75,0.47,2.55,0,*44
1504368446.62,55087,21.38,73684.8,4.75,0.33,2.61,0,*41
1504368447.81,55088,21.38,73684.0,4.77,-0.23,2.31,0,*65
1504368449.01,55089,21.38,73688.5,4.77,-0.49,2.21,0,*69
1504368450.19,55090,21.38,73684.0,4.77,-0.57,2.27,0,*68
1504368451.41,55091,21.38,73682.0,4.75,-0.61,1.63,0,*6D
1504368452.63,55092,21.38,73682.5,4.75,-0.07,1.63,0,*5E
1504368453.84,55093,21.38,73682.3,4.77,0.67,1.89,0,*42
1504368455.07,55094,21.38,73680.5,4.75,1.41,2.25,0,*77
1504368456.29,55095,21.38,73680.8,4.75,1.67,2.35,0,*73
1504368457.5,55096,21.38,73680.8,4.73,1.83,2.39,0,*70
1504368458.72,55097,21.38,73684.0,4.73,1.63,2.05,0,*70
1504368459.97,55098,21.38,73682.3,4.75,1.67,2.01,0,*79
1504368461.19,55099,21.38,73678.5,4.73,1.67,1.93,0,*76
1504368462.39,55100,21.38,73678.3,4.73,1.79,1.93,0,*78
1504368463.62,55101,21.38,73682.0,4.73,1.93,2.25,0,*73
1504368464.82,55102,21.38,73680.5,4.73,2.27,2.47,0,*78
1504368466.05,55103,21.38,73682.5,4.73,2.05,2.17,0,*7C
1504368467.28,55104,21.38,73682.0,4.73,2.01,2.25,0,*7E
1504368468.5,55105,21.38,73680.8,4.73,2.05,2.25,0,*7B
1504368469.7,55106,21.38,73678.8,4.69,2.13,2.31,0,*71
1504368470.93,55107,21.38,73678.0,4.67,2.31,2.43,0,*7B
1504368472.14,55108,21.38,73674.0,4.69,2.35,2.51,0,*7D
1504368473.37,55109,21.38,73680.3,4.69,2.43,2.51,0,*7D
1504368474.57,55110,21.38,73678.5,4.69,2.25,2.35,0,*77
1504368475.8,55111,21.38,73680.3,4.69,2.25,2.43,0,*77
1504368477.06,55112,21.38,73676.5,4.67,2.39,2.39,0,*7A
1504368478.25,55113,21.38,73680.3,4.69,2.21,2.31,0,*74
1504368479.51,55114,21.38,73676.5,4.67,2.39,2.43,0,*71
1504368480.76,55115,21.38,73678.3,4.67,2.39,2.47,0,*74
1504368481.99,55116,21.38,73678.5,4.69,2.51,2.73,0,*70
1504368483.24,55117,21.38,73678.0,4.67,2.55,2.69,0,*70
1504368484.5,55118,21.38,73676.8,4.67,2.47,2.59,0,*7F
1504368485.73,55119,21.38,73678.5,4.69,2.59,2.73,0,*77
1504368486.93,55120,21.38,73672.8,4.69,2.73,2.91,0,*79
1504368488.16,55121,21.38,73678.0,4.69,2.69,2.81,0,*72
1504368489.38,55122,21.38,73676.0,4.69,2.69,2.81,0,*71
1504368490.6,55123,21.38,73672.8,4.73,2.73,2.85,0,*74
1504368491.83,55124,21.38,73676.8,4.69,2.43,2.47,0,*75
1504368493.06,55125,21.38,73674.3,4.69,2.43,2.47,0,*74
1504368494.29,55126,21.38,73674.5,4.69,2.51,2.51,0,*73
1504368495.52,55127,21.38,73676.3,4.69,2.47,2.59,0,*7D
1504368496.73,55128,21.38,73676.3,4.69,2.81,2.95,0,*78
1504368497.93,55129,21.38,73678.8,4.69,2.91,3.07,0,*72
1504368499.13,55130,21.38,73678.8,4.69,2.91,3.07,0,*7A
1504368500.33,55131,21.38,73678.8,4.73,2.99,3.23,0,*7E
1504368501.56,55132,21.38,73682.3,4.69,3.15,3.19,0,*7A
1504368502.76,55133,21.38,73678.5,4.69,3.19,3.29,0,*74
1504368503.97,55134,21.38,73680.8,4.73,3.25,3.33,0,*7C
1504368505.17,55135,21.38,73680.8,4.73,3.25,3.37,0,*79
1504368506.4,55136,21.38,73680.5,4.73,3.19,3.33,0,*71
1504368507.6,55137,21.38,73680.0,4.73,2.95,3.11,0,*75
1504368508.82,55138,21.38,73676.0,4.73,2.85,3.07,0,*7C
1504368510.02,55139,21.38,73678.3,4.73,2.99,3.11,0,*77
1504368511.22,55140,21.38,73680.5,4.73,2.99,3.19,0,*71
1504368512.42,55141,21.38,73678.0,4.73,2.85,2.99,0,*74
1504368513.63,55142,21.38,73680.5,4.73,2.47,2.61,0,*7E
1504368514.83,55143,21.38,73678.8,4.73,2.55,2.65,0,*78
1504368516.06,55144,21.38,73674.8,4.73,1.93,2.13,0,*77
1504368517.26,55145,21.31,73672.8,4.73,2.25,2.35,0,*7C
1504368518.49,55146,21.38,73672.8,4.73,2.47,2.55,0,*7D
1504368519.69,55147,21.38,73668.8,4.73,2.35,2.47,0,*7A
1504368520.91,55148,21.38,73670.5,4.73,2.55,2.73,0,*74
1504368522.12,55149,21.38,73674.3,4.73,2.55,2.65,0,*72
1504368523.32,55150,21.38,73672.8,4.73,2.55,2.65,0,*7A
1504368524.52,55151,21.38,73670.8,4.73,2.17,2.27,0,*7B
1504368525.78,55152,21.38,73674.0,4.67,1.93,2.01,0,*76
1504368527.01,55153,21.38,73672.0,4.69,1.97,2.13,0,*7E
1504368528.23,55154,21.38,73674.5,4.67,2.09,2.31,0,*73
1504368529.45,55155,21.38,73674.0,4.67,2.21,2.31,0,*78
1504368530.68,55156,21.38,73674.8,4.67,2.27,2.43,0,*78
1504368531.95,55157,21.38,73672.8,4.63,2.43,2.51,0,*7C
1504368533.15,55158,21.31,73672.3,4.65,2.55,2.65,0,*75